Location: Asheville, NC
(35.6000°N, 82.5500°W)
Time: 17:40:47
(UTC-04:00)

STARS - Pass Details

Date: 10 January 2018
Orbit: 625 x 641 km, 98.3° (Epoch: 16 July)

Event Time Altitude Azimuth Distance (km) Brightness Sun altitude
Rises 19:34:05 0° 355° (N) 2,928 ? -23.6°
Reaches altitude 10° 19:36:47 10° 338° (NNW) 2,019 ? -24.1°
Maximum altitude 19:39:54 19° 292° (WNW) 1,495 ? -24.7°
Drops below altitude 10° 19:43:01 10° 247° (WSW) 2,016 ? -25.3°
Sets 19:45:43 0° 230° (SW) 2,923 ? -25.9°
